sat.trackr.live / text

‹ back to catalog

STARLINK-3864

NORAD 52468 · 2022-049T

PAYLOAD ACTIVE UNKNOWN

§ Identity

Operator
Country
US
Launch date
2022-05-06
Launch site
AFETR
Launch vehicle
Mass (kg)
RCS (m²)

Purposes: comms

External: N2YO · Heavens-Above · Gunter

§ Orbital elements

Epoch: 2026-05-25T02:11:30.560352Z

Period
95.44 min
Inclination
53.2147°
Eccentricity
0.0001698
Mean motion
15.08843685 rev/d
Perigee alt
538.6 km
Apogee alt
540.9 km
Semi-major
6,917.9 km
B*
-5.5781e-5
RAAN
76.1383°
Arg perigee
88.1259°
Mean anomaly
271.9928°
Rev number
22,378

§ Raw data

STARLINK-38641 52468U 22049T   26145.09132593 -.00001176  00000+0 -55781-4 0  99982 52468  53.2147  76.1383 0001698  88.1259 271.9928 15.08843685223782

JSON: /api/v1/satellites/52468 · /tle

For live sub-satellite position, see the globe view (requires WebGL).

§ Visibility from observer

Set your observer location to see the next 7 days of passes ≥ 10°. The values pass through the URL so the page stays shareable.

No JS? Fill the form by hand. The geolocation button needs JavaScript.